Theta_e
318 318 317 317 315 315 315 315 315 315 314 314 315 316 318 319 318 307 301 307 310 321 320 310 303 299 300 297 297 294 287 283 284 285 287 288 288 292 294 292 294 297 295 297 300
320 319 318 317 316 316 315 315 315 315 314 313 314 316 318 318 309 303 312 316 318 319 307 298 296 298 295 295 294 291 285 286 287 287 287 289 288 291 292 291 292 293 297 297 302
322 320 318 318 317 316 316 316 315 314 314 314 314 315 317 315 301 300 316 316 318 316 307 304 298 297 293 293 291 289 287 289 290 291 291 290 290 292 290 289 292 293 295 295 298
323 322 320 319 317 317 316 315 315 315 314 314 314 315 318 308 289 303 318 319 321 309 305 299 297 293 290 288 292 288 291 291 293 294 292 290 292 291 292 290 296 296 294 296 295
322 321 320 320 319 317 317 316 316 315 315 314 314 316 308 296 296 305 317 314 306 304 299 296 294 293 290 290 291 288 290 293 293 293 293 294 291 291 292 293 296 294 297 295 295
319 320 320 319 319 318 317 316 316 316 316 315 314 315 302 288 303 306 306 306 304 301 298 297 295 296 292 291 289 291 292 292 293 293 293 290 290 291 291 294 294 293 294 294 295
317 318 320 319 319 318 317 317 316 316 316 315 314 309 298 293 303 304 305 303 304 302 297 299 299 296 294 291 294 293 288 290 291 292 291 291 287 288 292 294 294 293 293 294 295
315 316 317 319 319 319 317 317 317 317 316 314 313 304 290 302 301 304 306 303 304 303 301 302 301 298 294 294 293 288 287 281 288 292 292 288 281 289 292 293 292 293 292 292 294
314 315 316 318 319 318 317 317 316 316 316 313 302 300 291 306 299 303 304 302 301 301 301 304 300 294 293 288 283 284 279 281 286 292 290 287 282 288 292 293 292 292 291 291 291
311 315 315 316 319 319 317 316 315 313 307 307 301 292 295 294 300 302 303 304 299 298 298 297 293 288 287 283 278 280 280 284 283 288 289 286 286 290 292 292 291 291 292 290 291
310 312 313 315 317 319 313 305 295 294 295 291 291 292 296 300 303 300 303 302 299 295 288 291 286 283 286 286 284 283 282 283 283 289 286 285 286 289 290 291 291 290 291 290 290
309 308 310 313 315 318 306 302 300 297 296 298 295 295 299 301 295 298 304 296 293 288 288 286 283 288 288 289 286 284 283 282 284 287 285 280 283 287 288 289 292 292 291 291 289
308 309 309 312 314 310 304 301 302 300 294 295 295 294 296 299 295 295 301 297 292 288 286 284 286 290 290 287 287 283 282 281 280 284 284 283 281 281 287 288 291 291 292 292 290
307 308 308 310 309 306 303 303 302 299 286 291 290 294 297 299 292 299 302 297 292 289 287 286 288 288 286 286 287 283 285 286 284 280 276 280 275 279 281 286 288 290 290 290 288
305 307 308 308 304 303 305 301 302 301 270 290 289 297 296 294 293 296 300 296 290 289 288 285 286 285 285 286 287 284 287 285 284 281 279 277 276 279 282 284 285 288 290 288 287
305 306 307 304 304 305 302 304 304 286 277 284 288 289 289 292 292 295 296 297 295 290 288 286 290 287 286 287 287 289 286 285 282 279 273 276 276 277 279 284 284 287 289 289 286
303 305 305 305 299 303 303 300 283 277 285 280 282 288 287 287 289 292 290 288 285 280 281 285 286 287 288 286 288 286 281 276 274 272 274 277 275 279 282 284 286 287 290 290 286
302 304 303 303 305 302 299 289 278 276 279 285 285 286 284 288 288 289 288 286 290 285 280 281 279 285 288 286 284 283 281 277 273 273 276 278 276 282 283 284 284 286 290 288 284
302 297 298 301 303 301 292 282 279 278 285 284 284 280 280 285 286 287 287 287 290 288 284 281 281 286 286 287 286 284 281 283 278 270 274 277 280 283 282 284 284 286 287 287 284
292 294 294 300 303 297 286 285 280 285 287 285 282 282 276 281 283 285 284 288 288 291 291 287 280 284 285 286 285 284 285 279 278 272 271 276 276 280 280 283 284 284 285 285 283
293 287 294 301 301 289 281 283 284 287 288 285 283 277 281 280 282 283 284 287 290 289 292 289 286 281 284 281 282 282 280 280 281 279 276 274 278 282 283 284 285 285 287 286 285
291 281 292 300 285 285 282 285 288 288 289 286 286 285 283 282 282 283 284 287 291 291 287 290 286 280 281 284 285 283 281 282 278 277 277 278 279 283 283 283 286 285 287 285 286
285 285 292 296 279 280 283 283 286 286 286 285 285 287 286 283 280 284 285 289 290 290 288 289 284 281 281 281 281 280 282 282 281 280 277 277 280 284 282 282 284 285 285 284 283
284 279 284 287 288 283 281 283 283 288 288 286 286 287 284 282 282 282 284 286 289 290 296 295 284 284 283 281 282 279 281 284 283 278 279 279 281 283 284 283 283 284 285 285 284
285 276 281 272 281 283 283 283 283 284 289 290 285 287 285 279 280 280 284 284 288 291 293 290 283 284 284 283 281 281 281 283 282 284 281 284 281 286 286 285 284 284 285 284 285
282 279 284 273 280 281 282 280 281 283 286 285 286 288 289 284 286 280 284 284 285 287 287 288 283 280 283 282 280 279 281 281 282 284 284 283 282 288 285 283 283 284 286 286 286
288 288 284 281 281 275 276 278 280 283 287 289 288 289 287 289 290 290 290 290 290 287 285 282 280 280 278 277 281 281 285 284 281 283 285 282 288 287 285 285 285 285 288 289 288
Wind_Speed
5 6 6 7 7 8 10 11 10 12 14 15 15 14 13 14 13 2 3 3 1 5 3 4 1 1 3 3 3 3 5 2 5 7 3 3 3 1 1 4 2 2 3 3 3
7 6 7 6 7 8 9 11 11 10 13 15 16 15 14 14 3 3 3 0 2 2 1 4 3 2 3 2 3 5 4 7 3 3 4 5 4 6 3 2 3 1 4 4 1
8 7 7 8 7 7 9 11 11 11 11 14 16 16 15 7 3 1 1 3 2 2 2 1 0 2 2 2 2 2 4 4 2 1 6 5 3 4 6 6 6 7 6 5 2
8 8 8 8 8 8 8 9 11 11 11 12 15 18 18 2 2 1 2 4 1 4 1 1 1 4 3 2 1 3 2 2 4 1 4 5 4 3 7 5 5 7 6 2 3
9 8 8 8 8 8 8 9 10 12 11 12 13 17 6 2 5 0 3 3 1 2 1 2 3 4 4 3 2 3 2 2 2 3 3 3 3 6 7 5 5 5 6 5 4
11 10 10 9 8 8 8 9 10 10 12 11 13 13 2 2 1 3 3 2 1 2 1 2 3 3 5 2 2 3 3 2 2 2 2 2 2 1 5 7 6 7 9 6 4
12 13 10 9 9 8 9 9 10 10 11 10 9 3 2 8 2 4 2 0 1 2 2 1 3 3 4 4 3 5 3 3 3 2 1 3 5 11 3 7 9 10 8 6 6
11 11 11 10 10 10 9 9 11 12 11 7 4 4 5 2 3 1 2 1 2 1 2 2 4 6 4 4 5 3 4 0 1 4 1 3 10 4 7 9 11 9 7 6 6
11 10 12 13 11 11 8 10 12 11 11 4 2 6 7 4 2 1 2 1 2 2 3 3 5 4 4 6 5 6 3 4 4 7 3 4 7 3 6 8 9 8 8 7 6
10 8 10 13 10 11 8 8 10 8 0 2 1 6 2 3 1 1 1 3 3 3 3 5 5 4 3 4 6 6 4 4 5 4 4 3 15 11 6 8 11 8 8 8 6
9 11 11 11 11 8 2 4 3 2 2 7 3 5 3 0 2 2 1 4 2 4 5 1 4 9 11 6 2 5 4 3 3 2 3 7 11 16 8 8 11 9 8 8 7
11 9 12 14 14 6 3 3 3 3 5 7 3 5 2 6 1 4 3 5 4 5 4 4 9 6 3 6 4 3 3 4 3 1 2 4 15 16 9 10 16 12 10 9 4
13 10 10 13 17 7 3 4 3 3 1 6 5 5 5 7 5 6 8 5 4 5 6 7 4 7 7 5 6 3 4 4 2 1 2 6 11 6 3 3 4 7 7 7 9
11 13 8 15 5 3 3 4 3 1 3 5 4 5 5 5 3 4 7 6 3 11 7 6 1 5 3 5 6 4 6 4 4 3 4 2 8 7 3 6 6 8 9 9 9
12 12 10 4 4 3 5 9 4 2 3 2 3 1 2 8 7 2 2 2 8 7 7 6 7 5 3 4 7 4 4 6 3 3 2 1 0 12 4 8 8 9 10 9 9
11 12 10 3 2 3 2 7 3 3 12 4 4 5 6 3 4 2 1 2 3 4 3 1 1 3 3 3 1 7 6 6 5 2 3 3 5 9 6 8 2 5 10 10 9
9 11 7 3 2 3 3 3 3 8 3 6 6 6 3 5 5 4 5 5 6 5 5 1 3 1 3 6 4 4 5 3 4 3 7 3 1 12 6 7 6 10 12 10 8
10 11 3 3 1 5 1 2 10 6 10 3 4 6 6 6 3 5 6 9 9 2 3 8 4 9 6 5 7 6 5 6 8 5 3 3 9 11 6 3 6 6 9 9 9
11 2 2 3 6 3 4 10 13 9 9 11 5 6 5 4 5 6 8 11 10 10 6 7 3 1 2 2 4 7 6 2 6 3 3 5 8 12 6 4 2 6 9 13 11
0 3 5 6 7 3 7 22 7 7 9 4 11 7 11 9 8 9 11 8 8 15 3 3 3 2 2 2 0 4 2 3 2 3 5 5 6 9 5 9 7 8 11 10 9
1 3 3 6 6 4 12 12 12 5 5 8 9 5 6 9 7 7 6 3 8 8 13 3 3 2 1 7 9 3 3 3 2 4 6 2 8 9 8 11 15 13 13 15 16
2 4 2 7 8 3 13 9 2 8 1 6 5 5 9 9 7 6 11 5 3 8 12 6 2 5 9 1 1 1 5 6 5 5 3 1 9 3 5 5 8 9 11 8 11
2 2 2 7 10 15 2 11 2 6 7 6 7 4 3 9 6 6 7 3 4 8 11 9 5 4 2 2 4 5 6 4 1 2 7 7 8 1 3 3 7 10 9 8 8
3 4 3 3 4 12 16 11 14 3 5 5 6 5 5 4 3 12 9 2 3 1 8 6 3 11 13 1 5 7 8 16 8 5 5 9 5 6 7 9 7 9 9 12 12
3 6 5 4 10 14 8 5 13 13 12 8 3 13 11 6 4 6 5 4 3 1 5 8 6 9 5 2 2 5 7 15 25 19 11 10 13 12 8 9 9 9 7 9 11
2 3 2 2 4 13 15 18 7 16 5 23 17 26 19 12 15 6 7 4 5 1 4 3 2 3 8 2 4 6 10 12 19 22 20 16 19 10 2 4 6 9 12 13 15
3 1 0 7 4 5 9 16 20 12 10 17 27 9 13 21 6 5 4 8 12 12 6 6 5 4 4 2 4 18 26 18 7 11 18 24 33 2 6 9 8 11 16 19 19
Wind_Direction
268 294 312 321 331 346 341 341 343 343 341 340 341 342 345 344 330 170 204 136 204 323 329 282 263 124 65 79 51 120 67 189 206 159 231 170 137 197 77 118 228 209 175 225 280
263 270 290 307 316 329 333 340 340 343 343 339 337 337 338 342 15 293 128 359 314 320 16 56 91 40 46 71 27 87 120 212 186 184 192 181 166 171 134 195 233 206 274 289 287
252 258 272 288 302 314 330 332 338 339 345 342 335 333 331 330 42 264 170 314 316 112 92 37 175 98 77 49 26 133 175 164 202 238 154 163 163 187 146 239 215 202 228 256 327
252 248 261 274 286 302 317 325 331 339 341 346 340 332 325 271 175 178 305 320 77 133 62 138 117 97 103 157 53 97 56 166 178 337 137 166 132 212 198 226 198 196 215 181 301
271 254 259 258 273 288 302 311 325 330 340 345 347 339 335 26 250 122 342 348 95 139 145 151 142 132 158 139 105 108 161 90 135 123 128 137 209 227 242 224 184 192 222 242 264
344 280 246 260 266 278 288 298 313 326 331 344 351 345 323 266 108 14 4 358 81 127 164 154 179 153 113 92 124 106 105 144 193 187 126 188 239 138 257 167 206 207 230 243 242
350 346 258 248 264 273 282 290 303 313 320 334 5 40 18 243 15 348 2 255 220 165 160 206 130 80 116 98 151 128 77 334 226 211 238 101 277 232 193 175 207 227 236 241 241
334 337 344 272 249 259 271 292 301 308 309 321 21 91 248 327 294 349 9 49 65 128 131 80 113 102 77 115 38 57 49 22 206 153 167 109 268 283 179 173 219 234 242 239 255
329 331 336 332 250 247 259 278 287 297 295 286 86 93 281 343 286 255 99 108 72 50 47 84 65 93 59 93 25 13 200 211 293 199 133 163 270 283 160 203 228 235 239 239 258
319 337 343 335 299 244 255 270 279 302 323 145 259 72 326 301 302 251 81 107 93 106 70 57 56 81 61 105 212 198 204 228 236 208 205 211 261 268 237 211 234 236 243 239 242
318 324 337 331 303 256 266 302 349 286 286 195 193 152 176 334 329 289 133 101 86 66 154 71 121 211 201 181 118 139 166 211 236 186 224 235 267 265 239 217 237 233 238 239 236
307 315 329 326 337 214 152 228 257 164 303 241 236 293 117 147 304 259 140 136 142 184 123 62 238 208 145 171 144 135 147 242 316 155 185 341 280 260 218 224 216 211 226 225 211
316 310 321 321 314 151 177 236 159 209 253 290 211 174 180 145 203 230 158 147 157 165 185 169 251 142 139 164 167 215 183 192 195 34 238 324 292 303 245 227 213 203 199 197 206
302 304 313 326 166 148 194 172 193 192 27 254 219 243 145 141 271 187 210 153 186 190 164 234 179 148 140 189 144 200 191 134 137 85 239 63 277 295 291 280 216 192 190 195 193
298 299 300 269 332 182 198 150 174 52 352 212 181 73 102 178 148 234 263 21 165 180 138 228 167 150 165 207 168 227 121 133 126 115 23 210 331 269 359 277 232 200 201 201 186
289 294 298 316 282 284 155 126 69 92 237 194 145 162 136 227 106 111 117 357 125 118 42 144 207 164 187 81 101 145 77 47 56 72 357 226 162 277 203 213 216 167 201 194 175
270 293 291 171 216 3 281 111 112 196 292 225 182 160 156 152 123 147 167 189 163 117 184 91 191 256 155 89 27 82 103 22 353 2 220 79 142 252 246 222 206 190 196 187 165
293 296 284 220 256 104 319 158 204 204 201 121 102 106 171 147 198 154 123 199 264 99 124 162 239 172 183 192 174 179 174 166 198 197 229 73 236 250 215 241 231 202 174 154 162
306 280 241 217 147 124 228 194 211 181 161 138 116 113 209 203 145 137 180 220 216 188 208 161 224 53 110 132 142 183 206 181 106 30 50 209 281 292 226 229 190 167 160 174 171
141 263 211 193 156 150 217 219 216 186 127 173 174 154 173 182 158 176 169 199 203 196 244 218 105 353 97 122 187 174 175 119 352 155 240 260 273 246 250 220 204 183 192 176 165
255 237 259 157 150 211 221 223 216 257 133 152 189 134 177 174 162 189 199 234 205 181 165 198 93 4 129 207 179 159 211 219 171 170 174 218 256 218 233 197 195 199 191 183 176
235 216 257 157 204 210 227 212 209 190 219 228 137 133 165 162 157 189 201 219 178 145 184 195 140 175 214 214 215 242 217 181 140 219 246 168 270 220 214 219 184 196 189 187 187
223 234 274 197 214 228 258 230 312 207 189 202 179 158 182 158 145 182 200 156 180 161 166 173 207 221 224 15 354 205 197 214 124 84 205 156 254 160 224 201 201 191 189 179 180
149 254 213 235 230 231 235 226 220 251 236 172 173 127 110 161 262 185 192 175 109 291 127 72 182 215 225 90 129 191 204 199 189 203 164 226 268 274 243 225 206 208 195 182 184
211 225 196 208 226 241 261 230 220 214 211 209 215 195 182 158 129 178 162 136 67 179 92 164 225 221 241 206 178 211 228 206 212 220 205 241 223 246 239 226 212 189 168 170 185
226 198 160 228 170 198 221 232 259 238 244 214 229 216 210 204 204 162 127 159 162 259 132 163 230 132 257 251 204 252 246 218 224 232 249 273 269 246 301 129 160 172 169 194 199
181 196 273 265 203 181 206 230 237 249 267 230 226 230 218 222 143 169 176 156 151 152 168 158 144 145 235 28 83 269 234 223 191 212 213 227 241 155 236 228 204 195 190 197 201